Location: Bon Acre
(42.6442°N, 73.5758°W)
Time: 09:51:48
(UTC+00:00)

ARIANE 6 FM1 Upper Stage - Pass Details

Date: 19 February 2026
Orbit: 523 x 607 km, 62.0° (Epoch: 7 March)

Event Time Altitude Azimuth Distance (km) Brightness Sun altitude
Rises 00:04:00 0° 318° (NW) 2,657 6.8 -17.9°
Reaches altitude 10° 00:06:13 10° 314° (NW) 1,767 5.9 -18.3°
Maximum altitude 00:10:06 56° 236° (SW) 628 3.1 -19.0°
Enters shadow 00:12:42 20° 163° (SSE) 1,280 4.3 -19.5°
